Regional Weather Roundup
Issued by NWS

Home | Current Version | Previous Version | Text Only | Print | Product List | Glossary Off
Versions: 1 2 3 4 5 6 7 8 9 10 11 12 13 14 15 16 17 18 19 20 21 22 23 24 25 26 27 28 29 30 31 32 33 34 35 36 37 38 39 40 41 42 43 44 45 46 47 48 49 50

000
ASUS43 KMKX 050100
RWRWI

WISCONSIN REGIONAL WEATHER ROUNDUP
NATIONAL WEATHER SERVICE MILWAUKEE/SULLIVAN WI
700 PM CST SUN DEC 04 2016

NOTE: "FAIR" INDICATES FEW OR NO CLOUDS BELOW 12,000 FEET WITH NO
SIGNIFICANT WEATHER AND/OR OBSTRUCTIONS TO VISIBILITY.

WIZ001-002-006>008-014>016-023>028-050200-
NORTHWEST WISCONSIN

CITY           SKY/WX    TMP DP  RH WIND       PRES   REMARKS
SUPERIOR ARPT  CLOUDY    32  32 100 CALM      29.69F
ASHLAND        CLOUDY    33  30  88 S6        29.72F WCI  28
HAYWARD        CLOUDY    33  30  88 S9        29.70F WCI  25
SIREN          CLOUDY    34  33  95 SW7       29.71F WCI  28
CUMBERLAND     CLOUDY    32  32 100 S7        29.71F WCI  26
RICE LAKE      CLOUDY    33  32  96 S7        29.74F WCI  27
CHETEK         FLURRIES  33  32  98 S7        29.74F WCI  26
LADYSMITH      CLOUDY    32  32  99 S8        29.75F WCI  25
EAU CLAIRE     FLURRIES  34  32  93 S6        29.75F WCI  29
MENOMONIE      LGT RAIN  33  33 100 S8        29.75F WCI  27
NEW RICHMOND   LGT RAIN  34  33  98 SW8       29.74S WCI  27
OSCEOLA        CLOUDY    35  35 100 S8        29.76S WCI  28
$$

WIZ003>005-009-010-017-018-050200-
NORTH CENTRAL WISCONSIN

CITY           SKY/WX    TMP DP  RH WIND       PRES   REMARKS
MANITOWISH WTR FLURRIES  28  28 100 S9        29.71F WCI  20
ARBOR VITAE    MIX PCPN  32  30  93 S9        29.72F WCI  24
WOODRUFF       MIX PCPN  32  30  93 S9        29.72F WCI  24
RHINELANDER    CLOUDY    30  28  92 S9        29.74F FOG     WCI  22
EAGLE RIVER    LGT SNOW  28  28 100 S5        29.73F WCI  23
LAND O LAKES   LGT SNOW  29  28  96 S5        29.75F WCI  24
PHILLIPS       CLOUDY    29  29 100 S8        29.73F FOG     WCI  21
TOMAHAWK       CLOUDY    29  27  94 S3        29.75F FOG
MEDFORD        CLOUDY    29  28  96 S10       29.75F FOG     WCI  20
MERRILL        CLOUDY    30  29  99 S7        29.77F FOG     WCI  23
$$

WIZ029-030-035-036-043>047-050200-
CENTRAL WISCONSIN

CITY           SKY/WX    TMP DP  RH WIND       PRES   REMARKS
WAUSAU         CLOUDY    30  29  96 S8        29.76F FOG     WCI  22
MOSINEE        NOT AVBL
MARSHFIELD     FRZ RAIN  30  29  96 S12       29.76F FOG     WCI  20
STEVENS POINT  CLOUDY    28  28 100 SW8       29.81F FOG     WCI  20
WAUPACA        LGT SNOW  32  31  95 CALM      29.83F
WAUTOMA        FLURRIES  31  29  92 S6        29.83F WCI  25
WISC RAPIDS    CLOUDY    31  31 100 SW9       29.81F WCI  23
CAMP DOUGLAS   CLOUDY    32  30  93 S5        29.81F WCI  27
$$

WIZ011>013-019>022-031-037>040-048>050-050200-
NORTHEAST WISCONSIN

CITY           SKY/WX    TMP DP  RH WIND       PRES   REMARKS
ANTIGO         LGT SNOW  28  27  98 S13       29.77F WCI  17
SHAWANO        LGT RAIN  32  31  95 CALM      29.83F
OCONTO         CLOUDY    32  32  99 CALM      29.83F
STURGEON BAY   LGT SNOW  32  30  92 CALM      29.83F FOG
GREEN BAY      LGT SNOW  33  33 100 S6        29.83F FOG     WCI  28
MANITOWOC      LGT SNOW N/A N/A N/A SW5       29.85F
APPLETON       LGT SNOW  30  30 100 S9        29.81F WCI  22
CLINTONVILLE   LGT SNOW  32  30  93 S6        29.82F WCI  26
OSHKOSH        LGT SNOW  31  29  92 S9        29.83F FOG     WCI  23
$$

WIZ032>034-041-042-053>061-050200-
SOUTHWEST WISCONSIN

CITY           SKY/WX    TMP DP  RH WIND       PRES   REMARKS
LA CROSSE      CLOUDY    35  33  92 S7        29.83S WCI  29
SPARTA         CLOUDY    32  32 100 S5        29.82F WCI  27
VIROQUA        CLOUDY    32  32 100 SW9       29.81F WCI  24
BOSCOBEL       CLOUDY    34  32  92 SW5       29.86F WCI  30
PRAIRIE DU CHI CLOUDY    34  32  94 SW3       29.86F
PLATTEVILLE    CLOUDY    32  32 100 SW8       29.87S VSB 3/4 WCI  25
$$

WIZ056-057-062-063-064-067-068-050200-
SOUTH CENTRAL WISCONSIN

CITY           SKY/WX    TMP DP  RH WIND       PRES   REMARKS
REEDSBURG      LGT SNOW  31  31 100 SW3       29.84F
BARABOO/DELLS  CLOUDY    31  29  94 SW6       29.83F FOG     WCI  25
LONE ROCK      CLOUDY    32  30  93 S7        29.86F FOG     WCI  26
MINERAL POINT  CLOUDY    32  32 100 SW8       29.85S FOG     WCI  25
MADISON        CLOUDY    31  29  92 SW5       29.85F WCI  26
MIDDLETON      CLOUDY    32  32 100 SW7       29.86F WCI  26
WATERTOWN      MIX PCPN  30  30 100 S5        29.86F WCI  25
MONROE         CLOUDY    30  30 100 S8        29.85F FOG     WCI  23
JANESVILLE     CLOUDY    30  30 100 CALM      29.87F FOG
$$

WIZ051-052-058>065-066-070>072-050200-
SOUTHEAST WISCONSIN

CITY           SKY/WX    TMP DP  RH WIND       PRES   REMARKS
MILWAUKEE      LGT SNOW  34  31  88 SW6       29.87F FOG     WCI  29
WAUKESHA       LGT SNOW  28  28 100 SW7       29.87F VSB 1   WCI  21
MILWAUKEE/TIMM LGT SNOW  32  28  86 SW3       29.88F VSB 1
RACINE         LGT SNOW  33  31  92 SW6       29.89F FOG     WCI  28
BURLINGTON     LGT SNOW  31  31 100 CALM      29.88S
KENOSHA        LGT SNOW  32  30  92 SW7       29.88F VSB 3/4 WCI  26
FOND DU LAC    LGT SNOW  31  28  89 S9        29.84F FOG     WCI  23
SHEBOYGAN      LGT SNOW  32  30  92 SW8       29.85S FOG     WCI  25
WEST BEND      LGT SNOW  32  32 100 SW3       29.85F
JUNEAU         LGT SNOW  30  29  97 S7        29.86F WCI  23
$$

LSZ147-162-050200-
LAKE SUPERIOR

STATION/POSITION TIME  TEMP    WIND        PRES    WAVE
                       AIR SEA DIR/SP/G            HT/PER
                 (UTC) (F)     (DEG/KT/KT) (MB)    (FT/S)
DEVILS ISLAND    0000   33     170/  6/  9 1007.4F
PORT WING        0030   33     160/  5/  8 1006.1F
SAXON HARBOR     0040   34     190/  6/ 11 1006.8F
$$

LMZ867-665-643>646-050200-
LAKE MICHIGAN

STATION/POSITION TIME  TEMP    WIND        PRES    WAVE
                       AIR SEA DIR/SP/G            HT/PER
                 (UTC) (F)     (DEG/KT/KT) (MB)    (FT/S)
CHAMBERS ISLAND  0030   33     120/  2/  4 1009.8F
NORTHPORT PIER   2340   32        CALM     1011.5F
SISTER BAY       0008   32        CALM       N/A
ALGOMA LAKESHORE 0021             CALM       N/A
KEWAUNEE LAKESHO 0030   33        CALM     1010.1F
SHEBOYGAN LAKESH 0000   33     230/  8/  9 1011.8F
PORT WASHINGTON  0040   33     240/  4/  7 1012.5F
MILWAUKEE LAKESH 0030   33     230/  7/  8   N/A
S MID LAKE BUOY  2350   36 48  180/ 12/ 14 1012.7R   3/ 5
$$

TC  - TEMPERATURE IN CELSIUS
VSB - VISIBILITY IN STATUTE MILES
WCI - WIND CHILL INDEX
HX  - HEAT INDEX





USA.gov is the U.S. government's official web portal to all federal, state and local government web resources and services.